SCP
0 0 0 0 0 0 -0 -0 0 0 0 0 0 0 0 0 0 0 0 0 0 0 0 0 0 0 0 0 0 0 0 0 0 0 0 0 0 0 0 0 0 0 0 -0
0 0 0 0 0 0 0 -0 0 0 0 0 0 0 0 0 0 0 0 0 0 -0 -0 0 0 0 0 -0 0 0 0 0 0 0 0 -0 0 0 0 0 0 0 0 -0
0 0 0 0 0 0 0 0 -0 0 0 0 0 0 0 0 0 0 0 0 0 -0 -0 -0 -0 0 0 0 0 0 0 0 0 0 0 0 0 0 0 0 0 0 0 0
0 0 0 0 0 0 0 0 0 0 0 0 0 0 0 0 0 0 0 0 0 -0 -0 -0 -0 -0 -0 -0 -0 0 0 0 0 0 0 0 0 0 0 0 0 0 0 0
0 0 0 0 0 0 0 0 0 0 0 0 0 -0 0 0 0 0 0 0 0 0 -0 -0 -0 -0 -0 -0 -0 0 0 0 0 0 0 0 0 0 0 0 0 0 0 0
0 0 0 0 0 0 0 0 0 0 0 0 0 0 0 0 0 0 0 0 0 0 0 0 -0 -0 -0 -0 -0 0 0 0 0 0 0 0 0 0 0 0 0 0 0 0
0 0 0 0 0 0 0 0 0 0 0 0 0 0 0 0 0 0 0 0 0 0 0 0 0 -0 -0 -0 -0 0 0 0 0 0 0 0 0 0 0 0 0 0 0 0
0 0 0 0 0 0 0 0 0 0 0 0 0 -0 0 0 0 0 0 0 0 -0 0 -0 -0 -0 -0 -0 -0 -0 0 0 0 0 0 0 0 0 0 0 0 0 0 0
0 0 0 0 0 0 0 0 0 0 0 0 0 0 0 0 0 0 0 0 0 0 0 0 0 0 0 -0 -0 -0 0 0 0 0 0 0 0 0 0 0 0 0 0 0
0 0 0 0 0 0 0 0 0 0 0 0 0 0 0 0 0 0 0 0 0 0 0 0 0 0 0 0 0 0 0 0 0 0 0 0 0 0 0 0 0 0 0 0
0 0 0 0 0 0 0 0 0 0 0 0 0 0 0 0 -0 -0 0 -0 0 0 -0 0 0 0 0 0 0 -0 0 1 0 0 0 0 0 1 0 0 0 0 0 0
0 0 0 0 0 0 0 0 0 0 0 0 -0 -0 -0 -0 0 -0 0 -0 -0 -0 -0 0 0 0 0 0 0 0 0 0 0 0 0 0 0 1 5 4 4 5 3 2
0 0 0 0 0 0 0 0 0 0 0 -0 0 -0 -0 -0 -0 -0 0 0 -0 0 0 0 -0 0 0 0 0 0 0 0 0 0 0 0 0 0 1 1 1 1 1 2
0 0 0 0 0 0 0 0 0 0 0 0 -0 -0 -0 -0 -0 -0 -0 -0 0 -0 0 0 0 -0 0 0 0 0 0 0 0 -0 -0 0 0 0 0 0 0 0 0 0
0 0 0 0 0 0 0 0 0 0 0 0 0 -0 0 0 -0 -0 -0 -0 -0 0 0 0 0 0 0 0 0 0 0 0 0 -0 0 0 0 0 0 0 0 0 0 0
0 0 0 0 0 0 0 0 0 0 0 0 0 0 0 -0 -0 -0 -0 -0 -0 -0 -0 0 0 0 0 0 0 0 0 0 0 0 0 0 0 0 0 0 0 0 0 0
0 0 0 0 0 0 0 0 0 0 0 0 0 0 0 0 -0 0 -0 0 0 0 0 0 0 0 -0 0 0 0 0 0 0 0 0 0 0 0 0 0 0 0 0 0
0 0 0 0 0 0 0 0 0 0 0 0 0 0 0 -0 -0 0 0 0 0 0 0 0 0 0 0 0 0 0 0 0 0 0 0 0 0 0 0 0 0 0 0 0
0 0 0 0 0 0 0 0 0 0 0 0 0 0 0 0 -0 -0 0 0 0 0 0 0 0 0 0 0 0 0 0 0 0 0 0 0 0 0 0 0 0 0 0 0
0 0 0 0 0 0 0 0 0 0 0 0 0 0 0 0 0 0 0 0 0 0 0 0 0 0 -0 -0 0 0 0 0 0 0 0 0 0 0 0 0 0 0 0 0
0 0 0 0 0 0 0 0 0 0 0 0 0 0 0 0 0 0 0 0 0 0 0 0 0 0 0 0 0 0 0 0 0 0 0 0 0 0 0 0 0 0 0 0
0 0 0 0 0 0 0 0 0 0 0 0 0 0 0 0 0 0 0 0 0 0 0 0 0 0 0 0 0 0 0 0 0 0 0 0 0 0 0 0 0 0 0 0
0 0 0 0 0 0 0 0 0 0 0 0 0 0 0 0 0 0 0 0 0 0 0 0 0 0 0 0 0 0 0 0 0 -0 -0 -0 -0 0 0 0 0 0 0 0
0 0 0 0 0 0 0 0 0 0 0 0 0 0 0 0 0 0 0 0 0 0 0 0 0 0 0 0 0 0 -0 0 0 0 -0 0 0 0 0 0 0 0 0 0
0 0 -0 0 0 0 0 0 0 0 0 0 0 0 0 0 0 0 0 0 0 0 0 0 0 0 0 0 0 0 0 0 -0 0 0 0 0 0 -0 0 0 0 0 0
0 0 0 0 0 0 0 0 0 0 0 0 0 0 0 0 0 0 0 0 0 0 0 0 0 0 0 0 0 0 -0 -0 0 -0 -0 0 -0 -0 -0 -0 0 0 0 0
0 0 0 0 0 0 0 0 0 0 0 0 0 0 0 0 0 0 0 0 0 0 0 0 0 0 0 0 0 0 0 0 -0 -0 -0 -0 -0 -0 -0 -0 0 0 -0 -0
Wind_Speed_500mb
54 55 52 52 51 55 55 24 8 41 40 12 5 14 12 28 32 58 25 21 29 18 22 19 15 23 21 51 33 24 26 30 32 49 24 25 41 30 22 18 13 12 31 49
52 52 51 47 44 41 47 36 30 40 39 8 12 19 19 15 14 10 11 8 9 12 8 10 14 21 24 57 30 16 17 12 20 17 29 31 15 25 37 11 9 37 18 15
53 54 52 46 37 30 29 15 8 15 21 24 19 22 14 20 29 20 16 17 4 12 4 7 12 21 21 56 36 46 27 12 24 38 25 13 16 34 24 37 29 21 43 10
53 51 47 40 32 26 21 6 9 14 10 14 22 17 15 23 18 18 14 8 15 8 7 10 8 14 30 25 15 28 13 12 8 26 29 42 27 24 41 44 49 43 32 26
52 48 43 36 32 26 22 9 9 11 19 21 14 10 11 23 16 12 13 12 21 11 7 11 26 31 15 8 14 18 12 11 15 13 20 44 47 39 38 47 46 38 12 15
49 45 40 34 26 23 16 18 26 17 12 7 9 6 18 30 15 24 15 21 15 18 25 36 42 41 41 21 11 26 8 8 16 13 12 36 40 61 33 23 31 34 30 19
43 39 37 32 22 23 24 29 28 13 8 11 10 25 35 29 14 17 30 38 4 16 62 57 44 47 45 45 32 39 19 16 8 11 14 29 48 36 41 19 15 19 24 21
42 38 34 31 25 20 28 31 29 10 7 15 28 23 25 35 37 24 29 16 30 40 32 7 13 9 9 22 41 43 39 23 8 7 7 13 8 17 27 18 21 16 18 23
46 43 36 30 30 25 26 29 22 24 9 12 22 14 18 21 14 10 12 40 39 20 6 6 9 7 10 11 21 51 45 37 19 12 8 11 12 9 25 13 8 9 19 19
44 41 37 33 31 24 24 26 21 23 17 36 25 12 11 12 7 7 21 20 14 9 4 9 9 9 9 10 16 8 7 7 16 23 20 19 16 12 13 17 13 3 11 19
43 39 38 37 36 29 27 33 25 32 30 52 53 60 51 37 27 11 15 19 2 4 7 8 7 8 10 7 14 22 10 10 6 7 9 16 54 29 13 13 15 35 29 36
43 42 40 35 31 26 26 37 27 31 36 51 76 83 75 59 54 46 19 15 17 10 5 5 8 7 7 9 8 13 15 10 11 10 9 22 43 19 21 50 45 23 32 42
49 47 43 38 32 31 30 37 35 36 34 56 38 36 19 24 32 42 33 29 26 21 18 5 5 13 10 7 9 8 19 13 6 8 3 18 50 29 45 57 54 54 58 53
52 49 46 43 39 35 33 41 40 36 20 10 24 39 65 38 39 51 63 71 26 24 21 11 6 9 11 5 12 8 5 8 11 4 20 33 37 44 22 56 54 59 63 62
54 49 46 42 38 36 39 44 23 19 28 9 34 72 7 29 29 34 59 57 76 43 8 8 8 8 13 8 10 3 6 5 9 2 11 10 17 35 57 72 58 46 57 64
56 49 45 39 34 30 34 13 10 9 13 12 8 19 24 37 16 24 43 60 55 35 19 10 7 13 8 7 6 7 15 10 7 4 15 26 24 54 75 83 76 69 63 56
56 48 42 34 27 31 25 17 21 27 23 9 9 8 15 38 25 10 21 25 16 17 9 5 7 9 10 5 3 6 36 23 26 38 26 25 41 37 73 80 76 73 70 61
50 38 33 33 34 38 40 26 30 40 20 10 5 8 15 18 15 11 5 12 8 4 4 6 7 9 8 4 6 30 25 13 36 43 17 42 58 62 62 54 51 64 61 50
36 34 32 15 5 13 23 36 21 18 15 5 6 4 5 13 8 6 11 5 4 4 2 5 8 5 4 10 16 31 20 10 39 57 44 44 53 52 50 52 51 60 46 27
37 20 10 6 14 40 35 7 5 7 10 11 5 6 6 8 8 6 1 1 2 2 3 13 7 8 31 29 29 27 35 44 37 49 37 45 46 45 41 39 32 31 35 22
39 24 9 28 30 14 7 8 6 5 4 9 14 24 9 11 6 4 11 3 4 5 5 5 10 10 18 54 38 42 55 51 51 55 55 48 48 43 44 43 46 27 26 16
39 32 30 17 10 6 7 9 12 6 7 8 8 8 16 6 5 5 3 4 4 7 4 6 8 12 38 43 30 44 49 42 39 37 42 47 43 44 53 43 47 42 39 31
27 11 9 9 13 10 8 12 7 8 7 10 20 12 5 1 5 4 3 9 9 6 8 6 7 29 45 51 37 21 22 21 24 36 41 45 47 45 40 45 47 47 40 39
11 11 16 8 10 9 9 20 12 33 25 41 31 9 3 6 5 7 9 9 8 7 9 8 4 22 27 39 43 48 44 59 58 61 60 62 57 51 47 43 41 45 46 40
10 14 13 11 26 44 52 53 49 60 55 37 10 10 17 10 10 10 9 10 10 9 7 6 33 41 52 61 61 49 52 55 53 51 46 44 45 45 43 42 42 38 40 41
13 13 13 36 19 31 53 61 60 74 65 14 25 10 10 17 8 13 15 7 9 10 8 37 43 42 48 49 61 59 55 54 50 51 46 44 46 44 45 45 42 44 49 42
10 17 48 42 41 32 46 58 53 45 58 24 11 15 17 5 8 11 9 9 10 20 34 47 41 44 47 56 55 56 56 64 61 54 64 67 59 49 50 52 48 42 48 45
Wind_Direction_500mb
335 332 329 331 332 336 339 354 305 308 354 4 288 229 195 257 272 285 281 273 282 295 348 298 271 248 220 320 324 309 278 216 230 230 221 205 222 214 184 215 234 235 227 244
334 336 336 332 333 335 340 329 286 344 349 7 359 349 346 5 353 346 339 301 39 24 19 336 331 325 332 17 9 359 324 231 232 255 251 243 199 223 217 134 133 222 210 244
335 336 338 332 330 322 332 322 315 324 349 17 8 358 349 337 325 292 348 317 39 13 307 213 301 317 346 343 340 343 346 243 244 237 221 184 197 222 210 210 215 216 233 202
332 330 333 332 328 311 311 275 267 319 322 343 335 337 276 333 342 352 343 348 2 93 314 307 289 332 328 334 344 350 21 282 282 290 261 207 200 195 211 214 219 211 228 208
331 328 330 331 324 310 292 252 301 317 286 302 319 316 301 350 345 302 321 351 319 310 202 251 298 317 319 229 321 348 333 282 331 275 255 230 217 222 228 216 216 228 172 208
329 328 328 330 322 303 284 277 279 269 290 281 309 257 341 312 324 288 297 309 305 293 290 288 280 284 280 234 255 289 268 311 354 278 311 218 233 215 204 208 216 211 205 197
332 330 326 329 326 297 284 287 297 267 279 272 276 292 299 304 312 296 309 320 318 311 316 304 299 281 260 244 233 228 241 270 249 274 307 215 220 212 218 203 218 216 226 213
345 339 332 327 322 304 280 286 275 255 268 276 289 284 296 312 310 301 284 307 325 320 300 287 307 304 275 228 217 220 219 231 262 261 264 270 156 186 187 171 241 204 205 223
346 345 338 330 323 315 286 289 281 260 286 267 286 304 288 285 288 310 275 309 315 323 252 191 238 230 326 282 165 209 221 213 200 258 314 261 212 226 126 120 207 277 173 179
338 336 337 335 332 324 298 293 291 262 258 274 260 245 260 301 318 276 294 293 327 4 291 227 215 238 250 247 231 131 50 45 198 253 247 273 328 321 111 123 223 111 126 138
337 335 333 331 326 315 305 297 293 271 268 274 268 273 265 265 263 250 284 326 313 323 227 242 206 217 247 266 273 188 126 148 147 281 281 255 353 320 156 176 141 124 109 109
342 337 332 326 322 325 312 304 308 293 274 266 281 283 272 249 251 253 248 250 288 214 257 293 323 303 280 260 246 130 158 177 172 148 239 309 296 327 47 109 96 82 105 117
334 332 330 324 320 314 309 307 316 303 283 295 279 287 310 266 258 257 240 266 234 208 203 0 274 274 292 229 225 165 174 152 120 60 276 2 353 334 58 85 95 115 121 118
324 320 320 318 312 308 305 298 304 294 271 268 285 293 294 290 266 253 238 245 227 241 241 182 247 252 268 277 279 242 200 129 105 297 308 344 345 5 72 83 89 97 107 111
327 318 313 311 311 307 305 306 289 244 252 274 290 311 210 333 323 246 231 238 231 239 211 208 246 254 266 252 234 227 7 114 131 165 328 269 320 3 80 77 68 59 81 94
325 317 314 308 304 305 313 311 256 230 223 295 295 304 302 344 308 266 229 229 228 214 223 231 235 247 273 263 338 39 0 338 137 145 113 113 56 62 72 73 74 75 72 69
324 314 304 311 305 292 272 252 274 268 270 272 285 282 282 333 335 263 229 204 175 200 217 255 265 269 237 235 249 290 303 270 170 155 119 85 78 64 78 80 80 79 71 65
327 322 316 302 298 293 283 306 266 250 257 241 273 279 309 339 328 327 74 133 135 65 174 271 254 260 241 312 329 306 339 51 152 171 160 113 102 102 89 88 81 73 69 56
333 322 322 312 291 288 296 303 298 216 209 258 252 253 276 321 281 334 335 162 162 196 268 251 277 309 328 316 22 4 29 33 125 136 124 117 105 99 90 93 93 93 76 94
344 351 341 306 319 319 310 318 257 221 203 222 248 244 260 258 241 205 227 223 281 322 281 291 351 333 346 23 30 24 66 97 126 118 106 106 103 100 90 81 93 103 99 91
354 345 317 306 322 329 313 287 230 242 256 222 249 224 227 258 232 195 209 93 55 18 342 38 9 359 348 14 43 55 86 85 89 102 111 104 103 105 97 77 73 96 100 83
324 314 308 319 330 318 5 319 309 289 281 209 228 274 208 266 197 53 56 100 183 55 52 34 8 341 347 31 51 68 88 88 90 97 90 87 92 92 87 97 92 92 85 102
328 318 311 343 351 349 32 317 312 278 267 258 294 314 96 261 159 156 75 38 41 13 37 31 302 322 4 15 36 79 64 97 88 114 107 104 101 102 104 91 86 82 84 81
329 333 342 59 329 330 304 309 280 315 279 300 303 294 48 24 44 16 50 32 20 47 25 338 291 8 33 38 70 74 96 82 86 89 94 91 88 84 81 80 82 80 77 84
340 15 14 355 309 323 342 353 354 3 355 359 3 55 37 16 49 20 23 38 26 17 335 22 3 43 52 59 79 77 76 78 79 81 81 80 77 76 74 70 68 78 80 81
27 23 344 337 326 347 355 0 360 8 2 23 47 36 31 38 31 16 24 33 13 354 7 23 59 47 43 57 62 59 72 73 69 64 61 69 68 63 66 60 59 70 66 77
23 351 22 26 18 4 12 14 4 14 33 28 31 40 34 359 36 23 4 9 11 17 54 66 55 63 54 59 64 64 68 67 68 75 66 67 69 71 63 60 66 65 69 66
Wind_Speed_850mb
54 55 52 52 51 55 55 24 8 41 40 12 5 14 12 28 32 58 25 21 29 18 22 19 15 23 21 51 33 24 26 30 32 49 24 25 41 30 22 18 13 12 31 49
52 52 51 47 44 41 47 36 30 40 39 8 12 19 19 15 14 10 11 8 9 12 8 10 14 21 24 57 30 16 17 12 20 17 29 31 15 25 37 11 9 37 18 15
53 54 52 46 37 30 29 15 8 15 21 24 19 22 14 20 29 20 16 17 4 12 4 7 12 21 21 56 36 46 27 12 24 38 25 13 16 34 24 37 29 21 43 10
53 51 47 40 32 26 21 6 9 14 10 14 22 17 15 23 18 18 14 8 15 8 7 10 8 14 30 25 15 28 13 12 8 26 29 42 27 24 41 44 49 43 32 26
52 48 43 36 32 26 22 9 9 11 19 21 14 10 11 23 16 12 13 12 21 11 7 11 26 31 15 8 14 18 12 11 15 13 20 44 47 39 38 47 46 38 12 15
49 45 40 34 26 23 16 18 26 17 12 7 9 6 18 30 15 24 15 21 15 18 25 36 42 41 41 21 11 26 8 8 16 13 12 36 40 61 33 23 31 34 30 19
43 39 37 32 22 23 24 29 28 13 8 11 10 25 35 29 14 17 30 38 4 16 62 57 44 47 45 45 32 39 19 16 8 11 14 29 48 36 41 19 15 19 24 21
42 38 34 31 25 20 28 31 29 10 7 15 28 23 25 35 37 24 29 16 30 40 32 7 13 9 9 22 41 43 39 23 8 7 7 13 8 17 27 18 21 16 18 23
46 43 36 30 30 25 26 29 22 24 9 12 22 14 18 21 14 10 12 40 39 20 6 6 9 7 10 11 21 51 45 37 19 12 8 11 12 9 25 13 8 9 19 19
44 41 37 33 31 24 24 26 21 23 17 36 25 12 11 12 7 7 21 20 14 9 4 9 9 9 9 10 16 8 7 7 16 23 20 19 16 12 13 17 13 3 11 19
43 39 38 37 36 29 27 33 25 32 30 52 53 60 51 37 27 11 15 19 2 4 7 8 7 8 10 7 14 22 10 10 6 7 9 16 54 29 13 13 15 35 29 36
43 42 40 35 31 26 26 37 27 31 36 51 76 83 75 59 54 46 19 15 17 10 5 5 8 7 7 9 8 13 15 10 11 10 9 22 43 19 21 50 45 23 32 42
49 47 43 38 32 31 30 37 35 36 34 56 38 36 19 24 32 42 33 29 26 21 18 5 5 13 10 7 9 8 19 13 6 8 3 18 50 29 45 57 54 54 58 53
52 49 46 43 39 35 33 41 40 36 20 10 24 39 65 38 39 51 63 71 26 24 21 11 6 9 11 5 12 8 5 8 11 4 20 33 37 44 22 56 54 59 63 62
54 49 46 42 38 36 39 44 23 19 28 9 34 72 7 29 29 34 59 57 76 43 8 8 8 8 13 8 10 3 6 5 9 2 11 10 17 35 57 72 58 46 57 64
56 49 45 39 34 30 34 13 10 9 13 12 8 19 24 37 16 24 43 60 55 35 19 10 7 13 8 7 6 7 15 10 7 4 15 26 24 54 75 83 76 69 63 56
56 48 42 34 27 31 25 17 21 27 23 9 9 8 15 38 25 10 21 25 16 17 9 5 7 9 10 5 3 6 36 23 26 38 26 25 41 37 73 80 76 73 70 61
50 38 33 33 34 38 40 26 30 40 20 10 5 8 15 18 15 11 5 12 8 4 4 6 7 9 8 4 6 30 25 13 36 43 17 42 58 62 62 54 51 64 61 50
36 34 32 15 5 13 23 36 21 18 15 5 6 4 5 13 8 6 11 5 4 4 2 5 8 5 4 10 16 31 20 10 39 57 44 44 53 52 50 52 51 60 46 27
37 20 10 6 14 40 35 7 5 7 10 11 5 6 6 8 8 6 1 1 2 2 3 13 7 8 31 29 29 27 35 44 37 49 37 45 46 45 41 39 32 31 35 22
39 24 9 28 30 14 7 8 6 5 4 9 14 24 9 11 6 4 11 3 4 5 5 5 10 10 18 54 38 42 55 51 51 55 55 48 48 43 44 43 46 27 26 16
39 32 30 17 10 6 7 9 12 6 7 8 8 8 16 6 5 5 3 4 4 7 4 6 8 12 38 43 30 44 49 42 39 37 42 47 43 44 53 43 47 42 39 31
27 11 9 9 13 10 8 12 7 8 7 10 20 12 5 1 5 4 3 9 9 6 8 6 7 29 45 51 37 21 22 21 24 36 41 45 47 45 40 45 47 47 40 39
11 11 16 8 10 9 9 20 12 33 25 41 31 9 3 6 5 7 9 9 8 7 9 8 4 22 27 39 43 48 44 59 58 61 60 62 57 51 47 43 41 45 46 40
10 14 13 11 26 44 52 53 49 60 55 37 10 10 17 10 10 10 9 10 10 9 7 6 33 41 52 61 61 49 52 55 53 51 46 44 45 45 43 42 42 38 40 41
13 13 13 36 19 31 53 61 60 74 65 14 25 10 10 17 8 13 15 7 9 10 8 37 43 42 48 49 61 59 55 54 50 51 46 44 46 44 45 45 42 44 49 42
10 17 48 42 41 32 46 58 53 45 58 24 11 15 17 5 8 11 9 9 10 20 34 47 41 44 47 56 55 56 56 64 61 54 64 67 59 49 50 52 48 42 48 45
Wind_Direction_850mb
335 332 329 331 332 336 339 354 305 308 354 4 288 229 195 257 272 285 281 273 282 295 348 298 271 248 220 320 324 309 278 216 230 230 221 205 222 214 184 215 234 235 227 244
334 336 336 332 333 335 340 329 286 344 349 7 359 349 346 5 353 346 339 301 39 24 19 336 331 325 332 17 9 359 324 231 232 255 251 243 199 223 217 134 133 222 210 244
335 336 338 332 330 322 332 322 315 324 349 17 8 358 349 337 325 292 348 317 39 13 307 213 301 317 346 343 340 343 346 243 244 237 221 184 197 222 210 210 215 216 233 202
332 330 333 332 328 311 311 275 267 319 322 343 335 337 276 333 342 352 343 348 2 93 314 307 289 332 328 334 344 350 21 282 282 290 261 207 200 195 211 214 219 211 228 208
331 328 330 331 324 310 292 252 301 317 286 302 319 316 301 350 345 302 321 351 319 310 202 251 298 317 319 229 321 348 333 282 331 275 255 230 217 222 228 216 216 228 172 208
329 328 328 330 322 303 284 277 279 269 290 281 309 257 341 312 324 288 297 309 305 293 290 288 280 284 280 234 255 289 268 311 354 278 311 218 233 215 204 208 216 211 205 197
332 330 326 329 326 297 284 287 297 267 279 272 276 292 299 304 312 296 309 320 318 311 316 304 299 281 260 244 233 228 241 270 249 274 307 215 220 212 218 203 218 216 226 213
345 339 332 327 322 304 280 286 275 255 268 276 289 284 296 312 310 301 284 307 325 320 300 287 307 304 275 228 217 220 219 231 262 261 264 270 156 186 187 171 241 204 205 223
346 345 338 330 323 315 286 289 281 260 286 267 286 304 288 285 288 310 275 309 315 323 252 191 238 230 326 282 165 209 221 213 200 258 314 261 212 226 126 120 207 277 173 179
338 336 337 335 332 324 298 293 291 262 258 274 260 245 260 301 318 276 294 293 327 4 291 227 215 238 250 247 231 131 50 45 198 253 247 273 328 321 111 123 223 111 126 138
337 335 333 331 326 315 305 297 293 271 268 274 268 273 265 265 263 250 284 326 313 323 227 242 206 217 247 266 273 188 126 148 147 281 281 255 353 320 156 176 141 124 109 109
342 337 332 326 322 325 312 304 308 293 274 266 281 283 272 249 251 253 248 250 288 214 257 293 323 303 280 260 246 130 158 177 172 148 239 309 296 327 47 109 96 82 105 117
334 332 330 324 320 314 309 307 316 303 283 295 279 287 310 266 258 257 240 266 234 208 203 0 274 274 292 229 225 165 174 152 120 60 276 2 353 334 58 85 95 115 121 118
324 320 320 318 312 308 305 298 304 294 271 268 285 293 294 290 266 253 238 245 227 241 241 182 247 252 268 277 279 242 200 129 105 297 308 344 345 5 72 83 89 97 107 111
327 318 313 311 311 307 305 306 289 244 252 274 290 311 210 333 323 246 231 238 231 239 211 208 246 254 266 252 234 227 7 114 131 165 328 269 320 3 80 77 68 59 81 94
325 317 314 308 304 305 313 311 256 230 223 295 295 304 302 344 308 266 229 229 228 214 223 231 235 247 273 263 338 39 0 338 137 145 113 113 56 62 72 73 74 75 72 69
324 314 304 311 305 292 272 252 274 268 270 272 285 282 282 333 335 263 229 204 175 200 217 255 265 269 237 235 249 290 303 270 170 155 119 85 78 64 78 80 80 79 71 65
327 322 316 302 298 293 283 306 266 250 257 241 273 279 309 339 328 327 74 133 135 65 174 271 254 260 241 312 329 306 339 51 152 171 160 113 102 102 89 88 81 73 69 56
333 322 322 312 291 288 296 303 298 216 209 258 252 253 276 321 281 334 335 162 162 196 268 251 277 309 328 316 22 4 29 33 125 136 124 117 105 99 90 93 93 93 76 94
344 351 341 306 319 319 310 318 257 221 203 222 248 244 260 258 241 205 227 223 281 322 281 291 351 333 346 23 30 24 66 97 126 118 106 106 103 100 90 81 93 103 99 91
354 345 317 306 322 329 313 287 230 242 256 222 249 224 227 258 232 195 209 93 55 18 342 38 9 359 348 14 43 55 86 85 89 102 111 104 103 105 97 77 73 96 100 83
324 314 308 319 330 318 5 319 309 289 281 209 228 274 208 266 197 53 56 100 183 55 52 34 8 341 347 31 51 68 88 88 90 97 90 87 92 92 87 97 92 92 85 102
328 318 311 343 351 349 32 317 312 278 267 258 294 314 96 261 159 156 75 38 41 13 37 31 302 322 4 15 36 79 64 97 88 114 107 104 101 102 104 91 86 82 84 81
329 333 342 59 329 330 304 309 280 315 279 300 303 294 48 24 44 16 50 32 20 47 25 338 291 8 33 38 70 74 96 82 86 89 94 91 88 84 81 80 82 80 77 84
340 15 14 355 309 323 342 353 354 3 355 359 3 55 37 16 49 20 23 38 26 17 335 22 3 43 52 59 79 77 76 78 79 81 81 80 77 76 74 70 68 78 80 81
27 23 344 337 326 347 355 0 360 8 2 23 47 36 31 38 31 16 24 33 13 354 7 23 59 47 43 57 62 59 72 73 69 64 61 69 68 63 66 60 59 70 66 77
23 351 22 26 18 4 12 14 4 14 33 28 31 40 34 359 36 23 4 9 11 17 54 66 55 63 54 59 64 64 68 67 68 75 66 67 69 71 63 60 66 65 69 66